Вернуться в каталог

CZ-3B DEB

АктивенGTO
NORAD 40191·DEBRIS·🇨🇳 China

Запущен Dec 19, 2011 с Xichang Satellite Launch Center

Loading…

TLE

УстаревшееSource: Space-Track

Эпоха: Sep 4, 2026, 22:44 UTC

1 40191U 11077Q   26247.94736910  .00000420  00000-0 -18549-3 0  9998
2 40191  25.6922 225.8821 7472473 246.6974  22.9882  1.95224481 81357

Отслеживайте CZ-3B DEB в реальном времени с AllMySat

Download on the App Store